This is the latest recevied weather packets stored in our database for station/object N2PPN. If no packets are shown the sender has not sent any weather packets the latest 1 day(s).
| Time | Temp. | Humidity | Pressure | Rain* | Wind** | Luminosity | Snow |
|---|---|---|---|---|---|---|---|
| 1778002740 | 18.89° C | 74% | 1013.8 hPa | 0 mm | 3.13 m/s, 164° | 719 W/m² | - |
| 1778002436 | 18.33° C | 75% | 1013.8 hPa | 0 mm | 2.68 m/s, 228° | 721 W/m² | - |
| 1778002134 | 18.33° C | 75% | 1013.9 hPa | 0 mm | 3.58 m/s, 168° | 724 W/m² | - |
| 1778001831 | 17.78° C | 74% | 1014 hPa | 0 mm | 3.13 m/s, 244° | 727 W/m² | - |
| 1778001530 | 17.78° C | 75% | 1013.9 hPa | 0 mm | 3.58 m/s, 174° | 727 W/m² | - |
| 1778001228 | 17.78° C | 76% | 1014.2 hPa | 0 mm | 4.02 m/s, 172° | 727 W/m² | - |
| 1778000924 | 17.78° C | 76% | 1014.2 hPa | 0 mm | 4.47 m/s, 230° | 728 W/m² | - |
| 1778000621 | 17.78° C | 75% | 1014.2 hPa | 0 mm | 4.02 m/s, 216° | 730 W/m² | - |
| 1778000316 | 17.78° C | 75% | 1014.4 hPa | 0 mm | 2.68 m/s, 190° | 729 W/m² | - |
| 1778000013 | 17.78° C | 75% | 1014.1 hPa | 0 mm | 2.24 m/s, 224° | 729 W/m² | - |
| 1777999708 | 18.33° C | 74% | 1014.2 hPa | 0 mm | 5.36 m/s, 238° | 729 W/m² | - |
| 1777999405 | 18.89° C | 72% | 1014.1 hPa | 0 mm | 4.47 m/s, 200° | 729 W/m² | - |
| 1777999103 | 20° C | 72% | 1014.1 hPa | 0 mm | 3.13 m/s, 191° | 727 W/m² | - |
| 1777998802 | 19.44° C | 70% | 1014.2 hPa | 0 mm | 2.68 m/s, 220° | 728 W/m² | - |
| 1777998499 | 20° C | 71% | 1014.5 hPa | 0 mm | 0.89 m/s, 192° | 723 W/m² | - |
| 1777998195 | 19.44° C | 72% | 1014.2 hPa | 0 mm | 3.58 m/s, 213° | 720 W/m² | - |
| 1777997893 | 18.89° C | 73% | 1014.8 hPa | 0 mm | 3.13 m/s, 215° | 718 W/m² | - |
| 1777997590 | 18.89° C | 72% | 1014.5 hPa | 0 mm | 2.24 m/s, 213° | 714 W/m² | - |
| 1777997287 | 19.44° C | 72% | 1014.7 hPa | 0 mm | 2.68 m/s, 239° | 712 W/m² | - |
| 1777996985 | 18.89° C | 72% | 1014.6 hPa | 0 mm | 2.68 m/s, 227° | 710 W/m² | - |
| 1777996682 | 18.89° C | 73% | 1014.4 hPa | 0 mm | 1.79 m/s, 262° | 705 W/m² | - |
| 1777996377 | 18.89° C | 73% | 1014.9 hPa | 0 mm | 2.68 m/s, 194° | 700 W/m² | - |
| 1777996074 | 19.44° C | 71% | 1014.6 hPa | 0 mm | 1.79 m/s, 206° | 697 W/m² | - |
| 1777995770 | 20° C | 69% | 1014.7 hPa | 0 mm | 3.13 m/s, 233° | 690 W/m² | - |
| 1777995467 | 18.89° C | 71% | 1014.8 hPa | 0 mm | 0.89 m/s, 160° | 683 W/m² | - |
* Rain latest hour (hover to see other rain measurements)
** Current wind speed in m/s (hover to see current wind gust speed)